Flag for Canada Weather past 2 weeks in Brampton, Ontario, Canada

Now
64 °F

Partly sunny.


Feels Like: 64 °F
Forecast: N/A
Wind: 5 mph from South

Location: Toronto Pearson International Airport

Current Time: Sep 30, 2014 at 6:33:42 PM

Latest Report: Sep 30, 2014 at 6:00 PM


Visibility: 8 mi

Pressure: 29.93 "Hg

Humidity: 83%

Dew point: 59 °F

Location of BramptonLocation

Historic Weather in Brampton — Graph

°F

Brampton temperature yesterday

Maximum temperature yesterday: 75 °F (at 2:00 PM)
Minimum temperature yesterday: 57 °F (at 6:00 AM)
Average temperature yesterday: 66 °F

Past Weeks' High & Low Weather Summary

 TemperatureHumidityPressure
High77 °F (Sep 20, 3:00 PM)94% (Sep 15, 8:00 PM)30.51 "Hg (Sep 15, 8:00 PM)
Low41 °F (Sep 19, 2:00 AM)43% (Sep 17, 4:00 PM)29.53 "Hg (Sep 21, 9:54 AM)
Average60 °F71%30.11 "Hg
* Reported Sep 15 5:00 PM — Sep 30 5:00 PM, Brampton, Weather by CustomWeather, © 2014

Note: Actual official high and low records may vary slightly from our data, if they occured in-between our weather recording intervals... More about our weather records

Advertising

Brampton weather history for previous 24 hours

 ConditionsComfort  
Time TempWeatherWind HumidityBarometerVisibility
5:00 PM
Sep 30
63 °FFog.2 mph88%29.92 "Hg6 mi
4:00 PM63 °FFog.3 mph88%29.92 "Hg6 mi
3:00 PM64 °FMostly cloudy.7 mph83%29.92 "Hg8 mi
2:00 PM64 °FMostly cloudy.13 mph83%29.91 "Hg8 mi
1:00 PM66 °FMostly cloudy.9 mph83%29.91 "Hg6 mi
11:00 AM66 °FBroken clouds.2 mph78%29.88 "Hg8 mi
10:00 AM64 °FFog.5 mph88%29.89 "Hg4 mi
9:00 AM63 °FFog.7 mph88%29.87 "Hg4 mi
8:00 AM63 °FFog.2 mph88%29.88 "Hg2 mi
7:00 AM61 °FFog.5 mph94%29.87 "Hg4 mi
6:00 AM61 °FFog.5 mph88%29.87 "Hg4 mi
5:00 AM61 °FFog.3 mph88%29.86 "Hg6 mi
4:00 AM61 °FPassing clouds.3 mph88%29.86 "Hg10 mi
3:00 AM61 °FPartly cloudy.5 mph88%29.86 "Hg10 mi
2:00 AM61 °FPartly cloudy.No wind94%29.85 "Hg10 mi
1:00 AM63 °FPassing clouds.No wind88%29.85 "Hg10 mi
12:00 AM64 °FPassing clouds.3 mph83%29.85 "Hg10 mi
11:00 PM
Sep 29
64 °FPartly cloudy.No wind88%29.87 "Hg15 mi
10:00 PM64 °FPartly cloudy.2 mph88%29.88 "Hg15 mi
9:00 PM64 °FPartly cloudy.3 mph88%29.88 "Hg15 mi
8:00 PM66 °FBroken clouds.6 mph83%29.89 "Hg15 mi
7:00 PM68 °FBroken clouds.7 mph73%29.89 "Hg15 mi
6:00 PM72 °FScattered clouds.7 mph57%29.88 "Hg15 mi
Weather by CustomWeather, © 2014

See weather overviewHow to use our weather pages